{"data":{"norad_id":48863,"intl_designator":"2021-055D","name":"YAOGAN-30 10C","alt_names":[],"object_type":"PAYLOAD","status":"ACTIVE","operator":null,"country":"PRC","launch_date":"2021-06-18","launch_site_code":"XICLF","launch_vehicle":null,"mission":null,"orbit_class":"UNKNOWN","rcs_meters":null,"size_class":null,"mass_kg":null,"dimensions":null,"purposes":[],"wikipedia_slug":null,"has_3d_model":false,"image_url":null,"decayed_at":null,"tle_current":{"epoch":"2026-09-20T13:03:17.341344Z","epoch_age_seconds":94061,"freshness":"FRESH","line1":"1 48863U 21055D   26263.54395071  .00001557  00000+0  11543-3 0  9999","line2":"2 48863  34.9959 290.1819 0003805 275.7711  84.2564 15.03045433287246","mean_motion":15.03045433,"eccentricity":0.0003805,"inclination_deg":34.9959,"raan_deg":290.1819,"arg_perigee_deg":275.7711,"mean_anomaly_deg":84.2564,"bstar":0.00011543,"rev_number":28724,"period_min":95.805487205123,"perigee_km":554.8729253261,"apogee_km":560.15095416925,"semimajor_km":6935.6489397477,"source":"CELESTRAK","updated_at":"2026-09-21T09:00:07.901280Z"}}}